Location: Boullarre
(49.1305°N, 3.0047°E)
Time: 16:24:22
(UTC+00:00)

Spot 1 - Pass Details

Date: 03 February 2023
Orbit: 575 x 772 km, 98.8° (Epoch: 25 March)

Event Time Altitude Azimuth Distance (km) Brightness Sun altitude
Exits shadow 18:51:39 54° 119° (ESE) 709 4.0 -20.4°
Drops below altitude 10° 18:55:21 10° 181° (S) 1,881 6.5 -21.0°
Sets 18:57:32 0° 185° (S) 2,781 7.5 -21.4°
